SCP
0 0 0 0 0 0 0 0 0 0 0 0 0 0 0 0 0 1 1 2 3 5 7 8 8 8 9 10 10 10 10 8 8 8 7 6 5 5 5 6 7 7 6 5
0 0 0 0 0 0 0 0 0 0 0 0 0 0 0 0 1 1 1 2 3 4 5 7 7 8 9 10 9 10 9 8 8 8 7 6 5 5 5 6 6 6 5 5
0 0 0 0 0 0 0 0 0 0 0 0 0 0 0 0 1 1 1 2 3 4 4 5 6 7 7 8 8 8 8 8 7 7 6 6 5 5 5 5 5 5 4 4
0 0 0 0 0 0 0 0 0 0 0 0 0 0 1 1 1 1 1 2 3 3 4 4 4 4 4 4 5 6 6 6 6 6 6 5 5 4 4 4 4 3 3 3
0 0 0 0 0 0 0 0 0 0 0 0 0 0 1 1 1 1 2 2 3 3 3 3 3 2 2 2 2 3 4 4 4 4 5 4 3 3 2 2 2 2 2 3
0 0 0 0 0 0 0 0 0 0 0 0 0 0 1 2 2 2 2 2 2 2 2 2 1 1 1 1 2 2 2 2 2 2 2 2 2 1 1 1 1 1 2 2
0 0 0 0 0 0 0 0 0 0 0 0 0 0 1 2 2 2 2 1 2 2 1 1 1 1 1 1 1 1 1 1 1 1 1 1 1 1 1 1 1 1 1 1
0 0 0 0 0 0 0 0 0 0 0 0 0 1 2 2 2 2 1 1 1 1 1 1 0 0 0 0 0 0 0 0 1 0 0 0 0 0 0 1 1 1 1 1
0 0 0 0 0 0 0 0 0 0 0 0 0 1 2 2 2 2 1 1 1 1 1 0 0 0 0 0 0 0 0 0 0 0 0 0 0 0 0 0 1 1 1 0
0 0 0 0 0 0 0 0 0 0 0 0 0 1 2 2 2 2 1 1 1 1 0 0 0 0 0 0 0 0 0 0 0 0 0 0 0 0 0 0 0 0 0 0
0 0 0 0 0 0 0 0 0 0 0 0 0 1 1 2 2 2 1 1 1 0 0 0 0 0 0 0 0 0 0 0 0 0 0 0 0 0 0 0 0 0 0 0
0 0 0 0 0 0 0 0 0 0 0 0 0 1 1 2 2 2 1 1 0 0 0 0 0 0 0 0 0 0 0 0 0 0 0 0 0 0 0 0 0 0 0 0
0 0 0 0 0 0 0 0 0 0 0 0 1 1 1 1 1 1 1 1 0 0 0 0 0 0 0 0 0 0 0 0 0 0 0 0 0 0 0 0 0 0 0 0
0 0 0 0 0 0 0 0 0 0 0 0 1 1 2 1 1 1 1 0 0 0 0 0 0 0 0 0 0 0 0 0 0 0 0 0 0 0 0 0 0 0 0 0
0 0 0 0 0 0 0 0 0 0 0 0 1 1 2 1 1 1 0 0 0 0 0 0 0 0 0 0 0 0 0 0 0 0 0 0 0 0 0 0 0 0 0 0
1 1 1 0 0 0 0 0 0 0 0 0 1 1 1 1 1 0 0 0 0 0 0 0 0 0 0 0 0 0 0 0 0 0 0 0 0 0 0 0 0 0 0 0
1 1 1 0 0 0 0 0 0 0 0 0 1 1 1 1 0 0 0 0 0 0 0 0 0 0 0 0 0 0 0 0 0 0 0 0 0 0 0 0 0 0 0 0
1 1 1 1 1 0 0 0 0 0 0 1 1 1 1 0 0 0 0 0 0 0 0 0 0 0 0 0 0 0 0 0 0 0 0 0 0 0 0 0 0 0 0 0
1 1 1 1 1 1 1 0 0 0 1 1 1 1 0 0 0 0 0 0 0 0 0 0 0 0 0 0 0 0 0 0 0 0 0 0 0 0 0 0 0 0 0 0
1 1 1 1 1 1 1 0 0 1 1 1 1 0 0 0 0 0 0 0 0 0 0 0 0 0 0 0 0 0 0 0 0 0 0 0 0 0 0 0 0 0 0 0
1 1 1 1 1 1 1 0 1 1 1 1 0 0 0 0 0 0 0 0 0 0 0 0 0 0 0 0 0 0 0 0 0 0 0 0 0 0 0 0 0 0 0 0
0 1 1 1 1 1 1 0 1 1 1 1 0 0 0 0 0 0 0 0 0 0 0 0 0 0 0 0 0 0 0 0 0 0 0 0 0 0 0 0 0 0 0 0
0 1 1 1 1 1 1 1 1 1 1 0 0 0 0 0 0 0 0 0 0 0 0 0 0 0 0 0 0 0 0 0 0 0 0 0 0 0 0 0 0 0 0 0
0 0 1 1 1 1 1 1 1 0 0 0 0 0 0 0 0 0 0 0 0 0 0 0 0 0 0 0 0 0 0 0 0 0 0 0 0 0 0 0 0 0 0 0
0 0 0 0 0 0 0 0 0 0 0 0 0 0 0 0 0 0 0 0 0 0 0 0 0 0 0 0 0 0 0 0 0 0 0 0 0 0 0 0 0 0 0 0
0 0 0 0 0 0 0 0 0 0 0 0 0 0 0 0 0 0 0 0 0 0 0 0 0 0 0 0 0 0 0 0 0 0 0 0 0 0 0 0 0 0 0 0
Wind_Speed
15 14 15 17 19 18 19 20 19 13 6 6 8 8 5 1 1 3 2 7 15 17 13 11 14 15 13 12 8 5 4 3 2 2 1 2 2 1 1 2 5 5 5 6
16 19 19 19 19 20 20 19 16 13 9 5 7 8 4 4 3 5 7 10 11 14 13 14 17 15 14 11 7 6 6 5 3 3 2 2 2 1 3 4 6 6 5 4
20 19 20 20 21 20 14 14 16 16 15 10 9 12 9 9 7 6 6 9 12 12 15 16 17 16 16 14 13 11 10 9 8 6 3 3 3 4 5 5 5 6 5 4
20 20 20 15 16 14 13 16 18 17 16 11 14 13 13 15 12 9 8 10 13 15 16 16 15 15 15 14 14 14 13 12 11 10 9 8 7 5 5 4 3 4 5 5
19 19 19 18 15 15 16 16 18 17 14 16 14 15 12 17 15 12 11 13 15 16 16 15 14 13 13 14 13 13 13 12 12 11 11 10 9 7 5 5 5 5 5 6
20 19 17 18 15 15 17 17 14 11 12 16 17 16 12 17 18 16 14 14 15 16 16 15 14 13 13 13 12 12 11 10 10 9 9 9 8 7 7 6 6 6 5 6
22 20 19 14 15 16 15 12 9 11 13 15 16 16 3 19 22 20 18 16 15 15 15 14 14 13 12 12 11 10 10 9 8 8 7 7 6 7 7 7 8 8 7 6
19 16 19 16 15 14 13 15 14 14 14 13 12 5 10 13 17 19 17 16 15 15 15 14 12 11 11 11 10 9 9 8 8 7 7 6 6 7 8 8 9 9 7 7
19 17 15 18 18 18 17 16 17 17 18 16 5 11 11 13 16 17 17 16 15 15 14 13 11 10 10 9 8 8 8 7 8 8 8 7 9 8 9 8 8 8 7 9
20 20 17 11 16 20 19 16 10 14 15 16 16 13 15 19 18 17 16 16 15 14 12 11 10 9 7 7 7 7 7 8 8 9 9 9 10 9 9 9 9 8 8 8
21 19 21 18 17 18 15 16 15 14 14 16 16 5 13 20 18 16 15 15 15 14 12 10 8 8 8 7 8 8 9 9 9 9 9 8 9 9 10 8 9 8 8 8
13 13 17 22 18 16 17 17 16 13 15 15 13 4 13 18 17 16 15 15 14 12 11 10 9 8 8 8 8 8 8 9 9 8 8 8 8 9 9 9 9 8 8 8
10 9 14 19 19 17 16 18 17 14 12 12 13 7 12 15 16 15 15 15 12 9 8 9 8 8 7 7 7 7 7 7 7 8 8 7 8 8 9 9 8 8 8 8
4 12 16 19 16 16 17 18 18 17 14 15 16 12 16 16 15 15 15 13 11 9 7 7 7 7 7 7 7 7 7 7 7 8 8 7 7 8 8 8 7 7 7 7
8 15 19 22 22 22 16 13 16 19 20 18 11 14 18 15 15 15 14 11 10 9 8 7 6 6 6 7 6 6 6 6 7 8 8 7 7 7 6 6 6 6 7 8
8 15 19 23 25 24 24 17 16 18 19 18 4 14 16 17 16 14 12 10 8 7 8 7 6 6 6 6 6 6 6 6 6 7 7 7 6 6 6 6 5 6 6 7
11 12 18 21 24 25 25 19 18 15 14 9 9 13 18 18 17 14 11 8 8 8 8 6 6 6 5 5 5 5 6 6 6 6 6 6 6 6 6 8 7 7 6 6
14 14 12 18 23 27 14 11 14 8 7 11 21 21 18 18 16 13 10 10 10 9 7 7 6 5 4 3 3 4 5 5 5 5 6 6 7 7 7 7 7 6 5 5
14 13 11 14 21 22 9 5 6 8 14 17 22 20 20 20 18 14 12 12 11 9 7 5 4 3 3 2 3 5 6 5 6 6 6 7 7 8 8 7 7 6 5 5
16 11 8 9 13 14 8 5 3 11 10 15 18 19 19 16 11 11 11 11 10 8 6 4 2 2 2 2 3 5 6 5 6 7 7 6 6 7 8 6 6 6 5 5
12 16 17 17 11 2 1 6 7 6 9 15 17 16 13 11 12 14 12 11 9 7 5 3 2 2 1 1 3 5 6 6 6 7 7 7 6 7 6 4 5 5 5 6
5 11 17 13 7 3 4 9 6 7 16 17 17 18 18 18 16 13 12 10 8 6 5 3 2 2 0 1 4 6 6 6 7 7 8 7 6 7 6 4 4 4 4 5
2 5 2 3 4 7 4 8 10 13 17 18 18 18 16 15 14 13 11 9 7 7 5 3 2 2 0 2 4 6 6 6 7 7 7 6 7 5 4 4 5 4 3 6
2 4 4 9 10 11 9 11 10 14 17 18 17 16 15 14 13 12 10 8 7 7 5 3 2 2 1 2 3 4 5 6 7 7 6 7 5 4 5 4 4 5 7 8
1 2 4 12 13 12 12 14 16 17 18 18 17 16 15 14 12 11 9 8 7 6 4 2 2 2 2 2 3 5 5 6 6 7 5 9 7 6 5 6 8 9 10 9
3 2 2 7 11 11 14 16 18 17 17 17 17 16 14 12 11 10 9 8 7 6 4 2 1 2 3 4 5 5 5 6 7 7 7 8 6 6 7 6 9 13 10 10
Wind_Direction
215 223 229 231 231 240 258 271 285 285 242 205 218 247 255 63 0 317 344 77 93 83 75 68 77 90 108 128 155 181 148 119 116 106 142 122 126 118 62 67 74 63 43 31
230 228 234 242 244 245 247 261 273 279 272 225 238 244 184 112 82 47 67 79 83 94 84 72 70 74 78 88 98 82 70 59 41 47 28 42 47 31 56 52 54 43 34 17
232 240 232 233 245 251 253 264 268 268 266 211 219 237 186 137 123 109 91 84 79 75 77 70 65 66 68 67 64 64 59 49 38 32 25 37 29 24 34 37 39 16 354 343
243 248 254 251 244 248 248 250 257 263 270 244 208 235 183 147 137 124 106 95 88 79 75 73 70 69 72 73 70 65 60 53 44 40 34 36 39 31 26 16 40 357 335 340
246 247 247 243 238 252 255 254 261 252 254 267 246 234 168 153 145 129 110 99 95 92 90 87 85 84 83 80 75 68 62 56 49 43 40 37 31 19 7 356 2 351 337 338
254 255 247 246 235 238 252 252 258 262 253 247 250 253 187 166 149 138 127 118 112 109 106 102 99 92 85 81 78 73 67 62 54 47 41 34 21 359 343 339 337 342 334 323
246 246 253 243 245 232 234 244 236 234 239 247 244 248 143 144 149 148 141 136 130 125 118 111 103 93 84 75 70 67 62 55 48 44 36 22 6 335 334 349 346 336 321 320
243 231 234 224 231 241 221 236 241 244 243 240 240 241 94 114 131 135 140 140 136 125 114 108 103 97 89 78 64 57 50 40 30 24 18 359 357 350 344 347 334 318 318 328
258 257 231 219 213 229 236 222 238 256 267 276 232 122 151 136 134 141 146 144 132 117 117 114 106 96 87 79 66 50 42 29 21 10 5 356 4 352 339 331 321 324 330 324
253 271 280 257 219 215 232 247 247 241 254 264 265 195 167 164 160 157 155 144 127 123 120 112 108 99 89 82 78 56 41 24 18 9 5 357 353 345 338 332 333 332 331 330
235 248 262 262 224 222 218 234 252 264 260 254 259 258 138 164 160 159 155 141 137 135 130 125 113 98 83 60 49 39 29 20 15 9 5 358 351 347 342 339 338 336 329 325
273 248 245 250 250 229 237 239 231 240 255 263 270 124 148 152 149 155 153 141 133 130 127 118 100 82 65 48 39 32 22 17 11 7 4 1 351 347 342 337 333 330 326 324
328 293 254 244 244 237 233 245 247 242 244 249 255 133 131 142 148 151 137 127 120 118 106 98 86 68 50 36 33 24 23 20 8 2 358 353 343 339 334 329 326 326 325 324
277 277 267 256 253 248 232 238 248 252 248 245 247 156 155 153 147 137 128 128 130 127 116 91 77 61 39 31 23 14 20 12 1 354 345 341 334 328 324 323 323 327 330 333
253 262 263 265 268 270 260 241 257 264 268 265 249 158 158 152 140 133 132 137 138 138 120 96 70 51 30 22 14 17 11 2 349 337 334 335 330 326 325 326 332 341 344 348
243 248 259 262 262 264 266 253 234 244 255 269 113 126 140 132 129 133 140 145 142 121 99 81 59 45 34 18 10 8 351 340 331 325 324 329 332 335 341 340 353 350 347 349
285 255 247 251 254 258 254 257 256 241 226 233 150 138 135 134 137 137 134 131 114 95 81 65 50 47 34 29 14 348 334 327 323 321 328 340 345 348 349 344 346 344 344 345
261 262 255 250 246 244 250 275 276 256 121 98 117 139 137 129 119 111 107 100 90 80 69 58 41 33 34 41 7 333 326 334 344 350 350 348 347 345 337 332 339 338 337 334
249 247 248 248 244 241 203 200 231 142 115 119 126 128 123 118 112 97 85 85 84 81 74 64 40 31 49 32 355 334 329 346 351 355 351 349 343 334 323 330 336 331 329 328
247 226 226 247 250 239 194 164 114 114 124 130 128 127 130 139 139 121 106 98 92 84 71 52 32 52 70 29 345 324 324 337 345 341 333 326 321 315 312 326 329 328 326 337
270 241 223 228 237 314 40 139 120 149 145 129 124 122 116 97 97 113 111 103 98 91 80 57 51 68 58 357 321 313 318 335 332 319 308 301 297 295 300 322 316 323 343 350
283 268 244 232 200 178 234 161 152 123 122 124 119 108 104 105 110 115 112 108 104 100 89 75 77 90 123 305 305 312 327 333 321 309 303 299 291 296 312 307 304 326 360 359
294 282 307 41 98 121 87 68 96 113 117 118 113 114 118 119 117 112 106 101 97 95 97 97 102 109 127 295 303 321 329 327 318 309 309 302 294 293 301 303 317 334 16 12
318 310 119 103 108 109 110 121 115 113 111 112 115 119 119 116 113 109 107 104 104 106 113 126 109 75 33 324 318 322 337 332 324 322 331 319 312 343 327 321 354 15 28 26
270 331 72 108 124 127 139 129 121 115 113 114 113 110 109 108 106 106 105 107 112 117 118 106 59 23 3 336 358 7 356 335 337 330 356 333 341 2 339 26 45 63 62 64
74 79 98 129 139 135 129 122 120 118 114 111 106 102 100 100 102 104 108 115 126 130 128 113 61 20 1 16 30 23 2 358 357 350 6 342 355 2 2 33 75 77 101 99